Regional Weather Roundup
Issued by NWS

Home | Current Version | Previous Version | Graphics & Text | Print | Product List | Glossary On
Versions: 1 2 3 4 5 6 7 8 9 10 11 12 13 14 15 16 17 18 19 20 21 22 23 24 25 26 27 28 29 30 31 32 33 34 35 36 37 38 39 40 41 42 43 44 45 46 47 48 49 50
000
ASUS43 KOAX 280502
RWRNE

WEATHER ROUNDUP FOR NEBRASKA
NATIONAL WEATHER SERVICE OMAHA NE
1100 PM CST TUE JAN 27 2015

NOTES: SATELLITE DATA IS BEING USED TO AUGMENT CLOUD COVER ABOVE
       12000 FEET.
       "FAIR" INDICATES FEW OR NO CLOUDS BELOW 12,000 FEET WITH NO
       SIGNIFICANT WEATHER AND/OR OBSTRUCTIONS TO VISIBILITY.

  * THESE STATIONS DO NOT REPORT WEATHER SUCH AS RAIN...SNOW OR FOG.

NEZ001>004-019>022-054>056-280600-
NEBRASKA PANHANDLE

CITY           SKY/WX    TMP DP  RH WIND       PRES   REMARKS
SCOTTSBLUFF      N/A    N/A N/A N/A MISG      29.95F
ALLIANCE       CLEAR     34  27  75 W3        29.93F
CHADRON        CLEAR     33  27  78 CALM      29.89F
SIDNEY         PTCLDY    37  28  70 NW12      29.96F WCI  29
$$

NEZ057>060-069>072-079>082-280600-
SOUTHWEST NEBRASKA

CITY           SKY/WX    TMP DP  RH WIND       PRES   REMARKS
NORTH PLATTE   CLEAR     30  25  81 CALM      29.90F
IMPERIAL       PTCLDY    39  27  62 SW3       29.91F
LEXINGTON      PTCLDY    35  29  79 E3        29.90F
MCCOOK         PTCLDY    44  29  55 CALM      29.90S
$$

NEZ005>010-023>029-035>040-094-280600-
NORTH CENTRAL NEBRASKA

CITY           SKY/WX    TMP DP  RH WIND       PRES   REMARKS
VALENTINE      CLOUDY    37  31  78 W7        29.86S WCI  32
AINSWORTH      PTCLDY    41  31  68 S5        29.85F
BROKEN BOW     PTCLDY    35  28  75 CALM      29.90S
ORD            CLEAR     38  30  73 CALM      29.90S
$$

NEZ041-046>049-061>064-073>077-083>087-280600-
SOUTH CENTRAL NEBRASKA

CITY           SKY/WX    TMP DP  RH WIND       PRES   REMARKS
GRAND ISLAND   CLEAR     41  31  67 SE10      29.92F
AURORA         CLEAR     36  30  79 SE9       29.92F WCI  29
HASTINGS       CLEAR     42  30  62 SE8       29.91F
KEARNEY *      CLEAR     41  28  60 S3        29.91S
YORK           CLEAR     41  32  70 SE13      29.94S
$$

NEZ011>018-030>034-042>045-280600-
NORTHEAST NEBRASKA

CITY           SKY/WX    TMP DP  RH WIND       PRES   REMARKS
NORFOLK        PTCLDY    40  31  70 SE9       29.93F WCI  34
ALBION         CLEAR     36  29  77 SE3       29.92F
BLAIR          CLEAR     42  31  65 SE12      29.98F
COLUMBUS *     CLEAR     45  28  53 SE10      29.96F
FREMONT        CLEAR     41  31  67 SE13      29.97F
TEKAMAH        CLEAR     36  29  75 SE13      29.99F WCI  27
$$

NEZ050>053-065>068-078-088>093-280600-
SOUTHEAST NEBRASKA

CITY           SKY/WX    TMP DP  RH WIND       PRES   REMARKS
LINCOLN        CLEAR     43  30  60 SE12      29.98F
OMAHA EPPLEY   CLEAR     40  30  67 SE16      30.00F WCI  31
FALLS CITY     CLEAR     38  30  73 SE8       30.02F WCI  32
NEBRASKA CITY  CLEAR     40  27  60 SE14      30.00F WCI  32
$$

NEZ044-045-051>053-067-280600-
OMAHA AREA

CITY           SKY/WX    TMP DP  RH WIND       PRES   REMARKS
OMAHA EPPLEY   CLEAR     40  30  67 SE16      30.00F WCI  31
BLAIR          CLEAR     42  31  65 SE12      29.98F
FREMONT        CLEAR     41  31  67 SE13      29.97F
OFFUTT AFB     CLEAR     38  30  75 E13       29.99F WCI  30
WAHOO          FAIR      34  28  78 SE8       29.97F WCI  27
$$



USA.gov is the U.S. government's official web portal to all federal, state and local government web resources and services.